Weather Roundup
Issued by NWS Chicago, IL

Home | Current Version | Previous Version | Graphics & Text | Print | Product List | Glossary On
Versions: 1 2 3 4 5 6 7 8 9 10 11 12 13 14 15 16 17 18 19 20 21 22 23 24 25 26 27 28 29 30 31 32 33 34 35 36 37 38 39 40 41 42 43 44 45 46 47 48 49 50
222
NZUS59 KLOT 290308
HRRLOT

CHICAGO AREA WEATHER ROUNDUP
NATIONAL WEATHER SERVICE CHICAGO/ROMEOVILLE IL
1000 PM CDT TUE MAR 28 2017

NOTE: "FAIR" INDICATES FEW OR NO CLOUDS BELOW 12,000 FEET WITH NO
SIGNIFICANT WEATHER AND/OR OBSTRUCTIONS TO VISIBILITY.

* THESE STATIONS ARE NOT UNDER NWS QUALITY CONTROL. THEY ALSO MAY NOT
  REPORT WEATHER SUCH AS PRECIPITATION OR FOG.

ILZ005-006-012>014-019>023-290400-
NORTHEAST ILLINOIS

CITY           SKY/WX    TMP DP  RH WIND       PRES   REMARKS
OHARE          CLOUDY    40  35  83 NE9       30.21R
MIDWAY         CLOUDY    43  38  82 VRB7      30.22R
AURORA         CLOUDY    40  36  86 CALM      30.21R
LANSING*       CLOUDY    39  39  98 NE6       30.22R
JOLIET*        CLOUDY    44  39  83 E10       30.21S
WAUKEGAN       FOG       35  35 100 NE6       30.23R VSB 1/4 WCI  30
DUPAGE AIRPORT CLOUDY    42  39  89 E9        30.20S
WHEELING       CLOUDY    37  36  96 NE7       30.24R
KANKAKEE*      CLOUDY    41  38  89 NE6       30.20F
MORRIS*        CLOUDY    43  38  83 E9        30.20R
LEWIS AIRPORT* CLOUDY    43  40  90 E8        30.21S
NORTHERLY ISL    N/A     37  36  96 N9          N/A
$$

WIZ051-052-058>065-066-070>072-290400-
SOUTHEAST WISCONSIN

CITY           SKY/WX    TMP DP  RH WIND       PRES   REMARKS
MILWAUKEE      DRZL/FOG  34  33  96 NE7       30.25R VSB 1/2 WCI  28
KENOSHA*       FOG       35  34  96 NE8       30.24R VSB 1/4 WCI  29
RACINE*        FOG       35  33  92 N9        30.26R VSB 1/2 WCI  28
WAUKESHA       FOG       32  32 100 E6        30.25R VSB 1/2 WCI  26
WEST BEND      FOG       34  34 100 NE6       30.24R VSB 1/2 WCI  29
$$

INZ001>003-010>013-019-020-290400-
NORTHWEST INDIANA

CITY           SKY/WX    TMP DP  RH WIND       PRES   REMARKS
GARY*          CLOUDY    41  39  93 CALM      30.23R
MICHIGAN CITY* NOT AVBL
RENSSELAER*    NOT AVBL
VALPARAISO     CLOUDY    42  39  89 N5        30.21R
$$

LMZ740>746-290400-
SOUTHERN LAKE MICHIGAN

STATION/POSITION TIME  SKY/WX   TEMP WIND        PRES    VSBY
                                AIR  DIR/SP/G
                 (UTC)          (F)  (DEG/KT/KT) (MB)    (MI)
HARRISON CRIB    0240            38  360/  8/  9   N/A
BURNHAM HARBOR   0300            37  350/  9/ 11   N/A
CALUMET HARBOR   0242            37  350/  7/  9 1022.9R
BURNS HARBOR     0240            39   50/  7/  8 1023.4R
MICHIGAN CITY    0240            38   30/  9/ 10   N/A
$$

ABBREVIATIONS USED IN REMARKS
   TC - TEMPERATURE IN CELSIUS
  WCI - WIND CHILL INDEX
   HX - HEAT INDEX
  VSB - VISIBILITY
$$




USA.gov is the U.S. government's official web portal to all federal, state and local government web resources and services.